Location: Long Geng
(2.6167°N, 114.1333°E)
Time: 00:31:15
(UTC+00:00)

BLOCK DM-SL R/B - Pass Details

Date: 24 September 2021
Orbit: 644 x 35622 km, 0.3° (Epoch: 24 October)

Event Time Altitude Azimuth Distance (km) Brightness Sun altitude
Rises 02:33:01 0° 268° (W) 8,291 8.5 64.2°
Reaches altitude 10° 02:36:32 10° 268° (W) 8,302 8.6 65.1°
Maximum altitude 04:25:09 79° 255° (WSW) 25,119 13.8 86.0°
Enters shadow 12:30:55 52° 102° (ESE) 3,513 6.3 -33.9°
